Location: Ciula Mare
(45.6000°N, 22.8167°E)
Time: 11:56:46
(UTC+00:00)

IRIDIUM 103 - Visible Passes

Search period start: 25 September 2023 00:00
Search period end: 05 October 2023 00:00
Orbit: 776 x 779 km, 86.4° (Epoch: 24 September)

Date Brightness Start Highest point End Pass type
(mag) Time Alt. Az. Time Alt. Az. Time Alt. Az.
25 Sep 5.5 18:54:03 10° N 18:56:59 30° NNE 18:56:59 30° NNE visible
25 Sep 6.7 20:35:21 10° NNW 20:37:28 19° NW 20:37:28 19° NW visible
26 Sep 5.8 18:20:58 10° NNE 18:23:38 22° NE 18:23:38 22° NE visible
26 Sep 6.1 20:01:18 10° NNW 20:04:06 29° NW 20:04:06 29° NW visible
27 Sep 6.1 17:48:27 10° NE 17:50:16 14° NE 17:50:16 14° NE visible
27 Sep 5.5 19:27:33 10° N 19:30:44 38° NNW 19:30:44 38° NNW visible
28 Sep 5.2 18:54:02 10° N 18:57:24 39° NNE 18:57:24 39° NNE visible
28 Sep 6.9 20:36:02 10° NW 20:37:53 16° WNW 20:37:53 16° WNW visible
29 Sep 5.4 18:20:46 10° NNE 18:24:04 30° NE 18:24:04 30° NE visible
29 Sep 6.3 20:01:39 10° NNW 20:04:33 25° NW 20:04:33 25° NW visible
30 Sep 5.8 17:47:50 10° NNE 17:50:46 20° ENE 17:50:46 20° ENE visible
30 Sep 5.6 19:27:45 10° NNW 19:31:14 38° NW 19:31:14 38° NW visible
01 Oct 6.2 17:15:50 10° NE 17:17:28 12° ENE 17:17:28 12° ENE visible
01 Oct 4.9 18:54:06 10° N 18:57:57 50° N 18:57:57 50° N visible
01 Oct 7.1 20:37:11 10° NW 20:38:26 12° WNW 20:38:26 12° WNW visible
02 Oct 4.8 18:20:40 10° N 18:24:40 43° NE 18:24:40 43° NE visible
02 Oct 6.6 20:02:11 10° NNW 20:05:09 21° WNW 20:05:09 21° WNW visible
03 Oct 5.3 17:47:31 10° NNE 17:51:25 28° ENE 17:51:25 28° ENE visible
03 Oct 5.8 19:28:02 10° NNW 19:31:54 35° WNW 19:31:54 35° WNW visible
04 Oct 5.8 17:14:49 10° NNE 17:18:11 17° ENE 17:18:12 17° ENE visible
04 Oct 4.8 18:54:14 10° N 18:58:40 58° NW 18:58:40 58° NW visible
